#timestamp,LO_Frequency,Hit 
1506232815.1,286046999.5,N
1506232816.0,286046999.5,N
1506232835.8,286047000.1,N
1506232855.7,286047004.4,N
1506232875.5,286047001.5,N
1506232895.3,286047002.7,N
1506232915.2,286047002.5,N
1506232935.9,286047000.0,N
1506232955.7,286046996.5,N
1506232975.5,286047000.8,N
1506232995.4,286047000.6,N
1506233015.2,286047000.2,N
1506233035.0,286047004.1,N
1506233035.9,286047004.1,N
1506233055.8,286047004.0,N
1506233075.6,286047005.6,N
1506233095.4,286047003.0,N
1506233115.3,286047004.1,N
1506233135.1,286047003.9,N
1506233136.0,286047003.9,N
1506233155.8,286047000.1,N
1506233175.7,286047004.0,N
1506233195.5,286047003.4,N
1506233215.3,286047003.2,N
1506233235.2,286047001.3,N
1506233255.9,286047004.3,N
1506233275.7,286047004.1,N
1506233295.6,286047003.8,N
1506233315.4,286047002.4,N
1506233335.2,286046999.9,N
1506233355.0,286047000.4,N
1506233355.9,286047000.4,N
1506233375.8,286046996.6,N
1506233395.6,286046998.6,N
1506233415.4,286047001.1,N
1506233435.3,286046996.5,N
1506233455.1,286046996.5,N
1506233475.8,286046997.0,N
1506233495.7,286046997.8,N
1506233515.5,286046997.9,N
1506233535.3,286046997.3,N
1506233555.2,286046996.6,N
1506233575.9,286046996.6,N
1506233595.7,286046997.6,N
1506233615.6,286046997.0,N
1506233635.4,286046994.9,N
1506233655.2,286046996.1,N
1506233675.0,286046998.0,N
1506233676.0,286046998.0,N
1506233695.8,286046996.8,N
1506233715.6,286046997.9,N
1506233735.4,286046997.2,N
1506233755.3,286046998.9,N
1506233775.1,286046998.1,N
1506233795.8,286046996.5,N
1506233815.7,286046997.8,N
1506233835.5,286046996.5,N
1506233855.3,286046997.4,N
1506233875.2,286046999.0,N
1506233895.9,286046997.0,N
1506233915.7,286046995.0,P
1506233935.6,286047000.7,N
1506233955.4,286047002.6,N
1506233975.2,286047002.7,N
1506233995.1,286047000.6,N
1506233996.0,286047000.6,N
1506234015.8,286046999.3,N
1506234035.6,286046999.4,N
1506234055.5,286046996.5,N
1506234075.3,286046996.7,N
1506234095.1,286046998.3,N
1506234115.9,286046998.2,N
1506234135.7,286046998.7,N
1506234155.5,286046999.1,N
1506234175.3,286046998.6,N
1506234195.2,286046998.2,N
1506234215.0,286046998.2,N
1506234215.9,286046998.2,N
1506234235.7,286047001.2,N
1506234255.6,286046999.2,N
1506234275.4,286046997.7,N
1506234295.2,286046996.8,N
1506234315.1,286046998.7,N
1506234316.0,286046998.7,N
1506234335.8,286046997.7,N
1506234355.6,286046997.7,N
1506234375.5,286046993.9,P
1506234395.3,286046994.7,N
1506234415.1,286046993.6,P
1506234435.9,286046994.5,N
1506234455.7,286046993.3,P
1506234475.5,286046998.1,N
1506234495.4,286047002.2,N
1506234515.2,286047004.1,N
1506234535.0,286047001.5,N
1506234535.9,286047001.5,N
1506234555.8,286047002.3,N
1506234575.6,286046998.5,N
1506234595.4,286046998.2,N
1506234615.3,286047000.8,N
1506234635.1,286046999.8,N
1506234636.0,286046999.8,N
1506234655.8,286047002.6,N
1506234675.7,286047002.8,N
1506234695.5,286047002.7,N
1506234715.3,286047001.3,N
1506234735.1,286047007.4,N
1506234755.9,286047003.0,N
1506234775.7,286047005.9,N
1506234795.5,286047003.5,N
1506234815.4,286047002.5,N
1506234835.2,286047002.8,N
1506234855.0,286047002.5,N
1506234855.9,286047002.5,N
1506234875.8,286047001.5,N
1506234895.6,286047005.0,N
1506234915.4,286047005.9,N
1506234935.3,286047001.9,N
1506234955.1,286047000.9,N
1506234956.0,286047000.9,N
1506234975.8,286047000.1,N
1506234995.7,286047001.0,N
1506235015.5,286047002.7,N
1506235035.3,286046999.4,N
1506235055.2,286046997.1,N
1506235075.9,286046999.6,N
1506235095.7,286046998.9,N
1506235115.5,286047004.3,N
1506235135.4,286047002.6,N
1506235155.2,286047002.7,N
1506235175.0,286047000.9,N
1506235175.9,286047000.9,N
1506235195.8,286047000.8,N
1506235215.6,286046998.9,N
1506235235.4,286047001.2,N
1506235255.3,286047002.2,N
1506235275.1,286047001.2,N
1506235276.0,286047001.2,N
1506235295.8,286047000.5,N
1506235315.7,286047000.3,N
1506235335.5,286046999.2,N
1506235355.3,286046999.5,N
1506235375.2,286046999.3,N
1506235395.9,286046996.7,N
1506235415.7,286046996.6,N
1506235435.6,286046998.4,N
1506235455.4,286047001.3,N
1506235475.2,286047002.5,N
1506235495.0,286046999.8,N
1506235495.9,286046999.8,N
1506235515.8,286046998.3,N
1506235535.6,286046997.1,N
1506235555.4,286046996.1,N
1506235575.3,286046994.2,N
1506235595.1,286046998.0,N
1506235615.8,286046999.6,N
1506235635.7,286046998.3,N
1506235655.5,286046997.2,N
1506235675.3,286046996.4,N
1506235695.2,286046993.4,P
1506235715.9,286046998.4,N
1506235735.7,286047000.2,N
1506235755.6,286046999.4,N
1506235775.4,286046997.4,N
1506235795.2,286046997.1,N
1506235815.1,286047003.1,N
1506235816.0,286047003.1,N
1506235835.8,286047007.3,N
1506235855.6,286047010.7,N
1506235875.5,286047011.8,N
1506235895.3,286047012.1,N
1506235915.1,286047013.9,N
1506235935.8,286047012.7,N
1506235955.7,286047016.7,N
1506235975.5,286047013.5,N
1506235995.3,286047010.2,N
1506236015.2,286047015.5,N
1506236035.9,286047016.3,N
1506236055.7,286047018.8,N
1506236075.6,286047017.1,N
1506236095.4,286047015.3,N
1506236115.2,286047015.5,N
1506236135.1,286047015.9,N
1506236136.0,286047015.9,N
1506236155.8,286047016.1,N
1506236175.6,286047016.9,N
1506236195.4,286047015.8,N
1506236215.3,286047018.4,N
1506236235.1,286047017.2,N
1506236255.8,286047015.2,N
1506236275.7,286047013.1,N
1506236295.5,286047015.5,N
1506236315.3,286047011.0,N
1506236335.2,286047009.0,N
1506236355.9,286047008.9,N
1506236375.7,286047009.6,N
1506236395.6,286047012.0,P
